RH
94 46 25 56 96 96 72 82 88 76 76 87 63 46 37 28 41 60 52 14 9 10 13 16 17 17 15 15 15 15 16 16 16 17 16 16 17 18 18 18 28 55 63
38 84 17 18 47 87 97 98 64 73 82 90 77 57 38 32 28 58 70 44 17 11 11 14 16 16 14 14 14 14 15 16 17 17 17 18 18 18 18 19 18 19 30
31 31 72 36 40 45 83 98 97 88 70 88 83 66 49 32 27 28 37 52 44 19 10 11 14 14 12 12 14 14 14 16 19 21 21 21 22 20 20 18 18 18 19
32 28 28 52 72 71 75 83 96 86 95 90 97 92 65 43 33 26 26 29 50 36 14 10 11 11 11 11 13 13 13 15 17 20 22 20 20 21 19 19 17 18 18
34 33 32 24 60 73 70 85 76 72 98 87 97 97 73 57 50 34 25 26 29 42 25 13 11 10 10 11 12 13 14 15 16 18 21 21 20 21 24 25 23 24 29
31 32 30 32 22 28 28 40 55 77 72 85 100 96 84 78 63 42 30 26 26 27 30 19 15 13 13 13 14 14 16 17 18 19 21 21 21 23 27 31 32 35 40
32 31 30 28 30 22 25 46 67 97 100 95 100 98 94 83 60 45 33 26 26 27 29 23 18 18 17 16 17 19 20 21 22 23 24 23 23 23 29 34 33 32 40
31 33 33 31 29 35 28 31 44 60 71 100 100 100 96 75 55 46 36 27 26 27 30 28 22 20 21 22 24 26 27 27 29 28 27 27 27 28 33 38 41 38 42
42 46 48 42 32 28 33 34 46 80 92 99 99 99 93 72 64 49 40 34 29 27 28 30 28 27 25 25 25 28 31 32 32 31 31 31 34 40 46 51 53 50 46
54 49 47 46 43 36 33 33 35 44 79 98 98 84 66 53 61 51 45 37 34 31 28 29 29 30 31 32 30 28 28 29 31 32 34 37 42 49 58 65 67 66 63
80 65 54 51 50 43 38 38 37 37 36 41 43 44 50 58 63 58 43 38 31 34 34 32 32 32 34 37 40 43 45 44 44 44 46 51 59 65 69 71 74 75 72
90 88 69 63 56 52 49 43 44 45 44 44 48 50 44 37 34 35 33 29 27 31 34 33 34 35 35 38 43 48 53 54 54 55 58 60 60 62 62 62 62 62 62
100 92 80 70 65 64 59 54 48 42 40 39 38 36 34 35 33 30 29 29 30 35 39 38 38 38 40 44 50 53 58 60 61 61 62 63 65 65 64 63 64 63 62
100 99 86 87 78 72 72 70 62 53 48 44 41 41 42 43 42 40 41 42 40 41 44 48 52 56 59 63 66 68 68 69 70 70 71 73 75 75 78 83 86 87 87
100 100 100 100 99 95 89 83 78 70 59 54 52 47 46 46 48 50 50 50 55 67 74 78 83 89 88 87 86 86 89 91 92 94 96 98 99 99 99 100 100 100 100
100 100 93 100 100 100 93 86 85 82 76 71 69 66 62 67 68 64 66 72 76 84 96 99 97 97 98 99 98 96 98 100 100 100 100 100 100 100 100 99 99 100 97
100 98 100 100 100 95 92 94 86 85 84 80 77 74 74 76 94 100 100 100 100 100 100 100 100 99 99 99 99 97 100 100 100 100 100 100 99 100 100 98 90 83 76
100 100 100 100 100 100 97 100 100 100 99 97 95 94 90 93 98 97 95 97 100 99 99 100 100 100 100 100 100 99 100 100 100 100 98 98 100 95 86 79 72 66 62
100 100 100 100 100 100 100 100 97 95 99 100 100 100 100 100 100 100 100 100 100 100 100 100 100 100 100 100 100 97 98 100 100 100 99 91 81 74 72 68 64 63 64
100 100 100 100 100 100 100 100 100 100 100 100 100 100 100 100 100 100 100 100 100 100 99 100 100 100 100 99 99 96 95 93 86 77 79 82 78 73 70 68 67 57 46
100 100 100 100 100 100 100 100 100 100 100 100 100 100 100 100 100 100 100 100 100 100 100 100 100 100 100 99 96 92 84 81 79 81 76 74 70 62 49 39 32 27 23
100 100 100 100 100 100 100 100 100 100 100 100 100 100 100 100 100 100 100 100 100 100 100 100 100 100 100 100 96 92 88 81 76 70 57 42 32 27 22 16 12 9 7
100 100 100 100 100 100 100 100 100 100 100 100 100 100 100 100 100 100 100 100 100 100 100 100 100 100 95 89 83 75 61 48 34 26 19 15 11 8 6 4 3 2 2
100 100 100 100 100 100 100 100 100 100 100 100 100 100 100 100 100 100 100 100 100 100 100 99 93 85 72 56 41 31 24 18 13 8 6 4 3 2 3 3 3 3 4
100 100 100 100 100 100 100 100 100 100 100 100 100 100 100 100 100 100 100 100 98 94 86 70 52 37 26 20 14 10 6 4 3 3 3 3 3 4 4 4 4 4 4
100 100 100 100 100 100 100 100 100 100 100 100 100 100 100 100 100 100 98 87 71 50 34 23 17 11 8 5 4 3 3 3 3 4 4 4 4 4 4 4 5 6 7
Wind_Speed
44 44 46 44 46 40 40 43 43 39 34 30 29 28 30 32 33 34 34 36 36 37 38 35 32 31 30 29 29 29 28 28 29 28 28 26 25 25 24 22 22 24 29
46 47 44 49 49 51 48 47 44 41 36 34 32 30 31 32 33 34 35 37 38 39 40 38 36 34 33 32 32 31 31 30 31 30 30 30 28 29 29 28 28 29 30
47 49 49 49 48 52 53 39 40 43 40 37 34 33 29 30 32 35 37 36 38 39 40 40 40 38 37 35 34 33 34 33 34 33 32 32 31 32 32 33 33 33 34
48 47 49 47 54 55 52 44 48 47 48 40 37 35 32 31 32 34 37 38 39 41 40 41 41 40 39 38 37 37 37 36 37 36 35 35 34 34 35 35 35 36 36
45 47 48 51 52 53 51 54 49 52 49 42 40 36 35 34 33 34 37 39 39 42 41 42 42 42 41 41 40 40 39 40 40 41 39 38 38 36 36 37 38 38 38
46 47 47 50 54 57 55 56 54 50 48 46 43 39 37 37 37 36 36 38 39 41 42 41 42 43 42 42 44 42 42 42 42 43 43 42 41 40 40 41 41 41 42
40 44 46 48 51 54 55 55 54 51 48 48 46 45 41 39 39 38 38 38 38 40 42 43 43 44 44 44 44 44 44 44 45 45 45 45 45 44 44 44 45 45 45
37 39 43 47 51 52 53 55 54 53 49 49 50 49 43 43 41 40 40 38 38 38 39 40 43 44 45 45 46 46 46 47 47 47 47 47 48 48 49 49 49 50 50
37 40 42 46 49 53 54 53 54 53 53 55 54 49 46 45 44 42 41 40 39 39 40 41 42 45 46 46 47 47 48 49 49 49 50 50 51 51 52 53 54 55 55
33 39 42 45 47 48 49 50 50 53 55 54 54 52 50 48 46 44 44 42 41 41 41 41 42 43 44 45 46 47 49 50 51 52 52 52 53 54 55 55 57 58 59
31 37 39 43 45 46 47 48 49 50 52 52 52 51 50 49 48 47 47 46 44 43 42 42 43 43 45 46 47 47 48 50 51 53 54 54 55 56 57 58 59 61 62
32 34 38 40 44 46 45 45 45 46 47 48 49 49 49 50 49 49 49 47 46 44 44 44 44 45 45 46 47 48 49 50 52 53 54 56 57 58 60 61 62 62 63
32 34 35 37 39 40 42 42 44 46 47 49 49 50 50 49 48 47 47 47 46 45 44 44 45 45 46 46 47 48 49 51 52 54 55 57 58 60 61 63 64 66 67
29 28 35 35 36 39 40 40 41 41 42 44 46 47 47 47 46 46 46 46 44 44 45 45 44 45 46 47 48 50 51 53 55 56 58 59 61 62 64 65 66 67 69
32 30 27 31 38 38 38 40 40 39 39 39 40 43 44 44 45 45 45 45 45 43 44 44 45 46 47 49 50 52 53 55 57 58 59 61 62 64 66 68 70 71 73
40 37 33 30 32 36 38 37 40 41 40 40 41 42 43 43 44 44 44 44 44 44 45 47 48 49 51 52 54 55 56 57 58 60 63 65 66 67 69 70 72 73 74
41 40 44 36 34 35 37 40 39 40 43 43 42 41 41 41 40 40 41 42 44 47 48 49 50 52 54 55 56 57 59 61 62 62 63 66 69 69 70 72 75 77 80
37 38 41 40 38 37 38 37 39 41 40 40 39 40 41 41 42 44 45 46 48 49 49 51 54 56 57 56 56 56 58 60 62 65 67 68 70 73 76 79 81 84 86
33 38 36 38 40 40 40 41 40 39 38 39 40 42 43 44 44 46 48 47 48 48 53 55 54 56 57 59 59 60 61 62 64 67 71 74 77 79 83 86 87 88 91
48 43 41 40 38 40 41 41 42 42 42 41 39 37 40 45 46 47 47 50 51 53 55 54 55 57 59 60 61 62 64 67 70 74 77 81 84 88 91 92 94 97 99
45 44 44 42 41 38 39 40 39 41 42 41 40 42 44 43 43 46 48 50 51 53 54 56 58 59 60 63 64 66 69 73 76 80 84 88 91 92 95 98 101 104 107
40 41 41 41 41 41 42 41 42 42 44 41 41 42 44 44 45 46 47 50 52 53 55 56 58 60 61 64 68 71 75 79 82 86 88 90 94 97 101 105 109 112 114
40 39 40 38 39 39 42 42 44 44 44 43 42 42 44 45 46 47 50 52 52 53 54 56 59 62 65 68 71 74 78 81 84 87 92 96 100 103 105 107 109 110 110
43 40 42 40 43 38 38 39 40 40 40 42 43 44 44 44 46 47 48 50 51 53 56 58 61 64 67 70 73 76 81 86 90 93 96 97 99 100 101 102 104 106 107
46 45 46 46 43 44 43 41 40 42 43 42 43 43 44 44 45 46 48 50 51 53 55 58 61 64 69 73 77 81 83 84 87 88 90 91 93 95 97 97 97 95 93
46 49 48 48 47 46 44 43 43 43 44 44 42 40 39 39 41 41 42 46 48 52 55 59 63 67 71 72 74 76 78 80 81 83 85 87 88 88 86 82 78 74 71
Wind_Direction
230 223 224 226 216 225 237 238 240 243 247 252 253 249 245 241 237 237 237 235 234 232 233 236 238 240 242 244 247 250 248 247 246 246 245 247 252 255 253 252 246 241 240
231 227 224 224 228 224 232 235 238 245 248 252 254 254 249 249 245 241 239 238 236 236 234 236 237 240 244 243 246 250 252 251 251 250 251 251 250 253 257 255 251 250 249
233 230 226 223 223 232 234 238 241 243 244 250 253 254 253 253 252 249 245 242 241 239 238 236 237 240 243 242 245 249 252 252 254 253 252 255 255 254 254 254 254 253 253
231 230 230 231 227 227 230 236 236 242 246 245 250 255 256 257 259 256 251 247 244 242 241 239 238 240 242 242 243 247 251 252 254 254 255 256 256 257 257 256 256 256 255
238 235 232 231 229 232 232 236 241 239 246 246 250 253 255 258 262 260 254 251 248 245 244 243 240 240 241 242 243 245 249 253 254 256 256 257 258 257 257 257 259 258 258
236 236 236 235 234 234 234 235 236 241 244 247 250 250 254 257 262 262 258 254 252 249 248 246 245 242 241 241 244 245 246 249 252 256 257 258 259 257 257 257 258 259 261
239 237 236 234 235 235 237 238 237 237 241 247 251 250 251 257 261 263 259 255 253 251 248 250 248 247 245 244 244 246 247 248 250 253 257 258 260 261 260 260 262 262 262
239 237 235 232 232 235 236 237 239 241 240 244 248 251 249 257 260 260 258 256 255 253 253 251 251 251 250 248 248 248 249 250 251 252 254 257 258 260 261 263 264 265 265
233 230 230 232 232 233 235 237 238 240 240 241 247 250 254 256 256 255 257 257 256 255 254 253 253 255 256 254 253 252 252 254 254 254 255 256 257 259 260 262 263 265 266
236 232 230 230 232 235 237 239 239 240 243 246 249 252 254 254 252 254 256 258 258 257 256 256 256 254 255 257 257 257 258 257 258 258 258 258 259 260 262 263 265 266 268
234 234 232 232 232 234 235 237 239 240 241 243 246 249 250 251 250 252 256 258 258 258 258 258 258 258 258 257 258 259 260 261 261 262 263 263 264 265 266 267 268 269 270
237 233 234 234 233 233 235 237 238 240 242 245 246 248 249 251 253 253 255 256 257 258 258 259 260 260 260 261 261 262 262 263 264 265 265 266 266 267 267 268 268 269 269
229 233 234 235 236 238 239 240 241 242 244 245 247 248 249 251 251 252 253 254 255 257 258 259 260 262 263 263 264 264 264 265 265 265 265 265 266 266 267 267 268 268 269
215 227 229 231 235 237 238 241 242 243 244 245 247 248 249 249 251 251 253 254 255 256 258 261 262 262 262 263 263 263 264 265 265 266 267 268 269 270 270 271 272 272 273
230 227 228 229 230 235 239 240 241 244 246 247 248 248 248 247 250 251 252 253 255 257 260 261 262 261 261 262 263 265 266 268 269 270 271 272 272 272 272 273 273 273 273
238 235 238 239 241 238 238 240 242 242 244 245 247 247 247 250 251 252 253 255 257 259 260 260 262 265 267 268 269 270 270 271 271 272 272 273 273 274 274 275 275 275 276
235 236 236 248 241 240 239 239 241 243 244 247 249 252 253 253 255 258 261 261 260 260 263 265 268 270 271 271 272 272 272 273 273 272 273 274 276 276 276 276 276 277 277
228 226 235 238 241 242 241 240 242 246 248 250 252 254 255 255 255 256 257 260 262 265 267 267 269 270 272 273 273 274 273 273 272 274 275 275 277 278 278 279 280 280 280
221 228 229 247 242 239 239 240 243 245 248 251 253 254 255 256 257 260 262 264 261 261 265 269 271 272 273 274 275 275 275 274 274 275 278 279 280 281 283 282 282 282 282
223 227 230 234 239 239 241 241 242 244 243 245 248 253 256 256 258 259 260 262 266 268 271 273 274 275 275 275 276 277 277 277 278 280 281 283 283 284 285 284 284 284 284
223 223 222 225 226 230 235 236 239 240 238 238 241 251 256 257 258 260 260 261 266 270 273 274 275 277 278 278 279 280 280 281 282 283 284 285 286 285 286 286 285 284 284
220 225 232 233 234 235 239 240 240 240 238 240 248 253 256 257 261 264 265 267 271 275 277 277 277 278 278 280 282 283 284 286 286 287 287 286 286 286 286 285 285 285 284
218 224 228 229 234 240 240 242 241 244 244 246 252 257 263 265 266 265 268 272 274 275 277 279 280 281 283 284 285 287 288 288 288 288 287 287 287 287 287 286 286 286 286
216 224 224 229 231 235 237 239 244 244 248 253 255 259 265 265 266 269 272 274 276 277 280 282 284 286 287 288 288 289 289 290 290 290 290 290 290 289 289 288 288 288 287
222 227 228 230 231 235 240 245 249 249 251 254 256 260 263 265 267 270 273 276 278 281 283 285 287 289 290 290 291 292 292 292 292 292 292 292 291 291 290 290 289 289 289
223 226 230 232 235 238 242 244 246 248 250 253 256 257 260 263 267 272 276 281 284 286 288 289 290 291 292 294 295 295 295 295 295 295 294 293 292 292 292 293 295 295 294